UWE-3

Last updated on Fri Jul 11 2025 00:03:04 GMT+0000 (Coordinated Universal Time)

1 39446U 13066AG 25191.09794837 .00002425 00000+0 23196-3 0 9993 2 39446 97.8251 141.8568 0053628 19.7104 340.6172 14.93109810626462
UTC large
Height (km)
Speed (km/s)
/
Latitude / Longitude
Inclination (degrees)
Orbital Period (minutes)
Azimuth
Elevation
Range (km)
Doppler Factor

Next 0 passes for location: London (51.5072 / 0.1276)

Sorry there are no passes over London.